AAL141 EGLL-KJFK

Flight info

Callsign AAL141
Flight time N/A
Altitude 36000
Route CPT L9 BUCGO DCT FELCA DCT OFSOX DCT SLANY DCT MALOT/M082F360 DCT 54N020W 55N030W 55N040W 53N050W DCT RIKAL/N0470F360 N572A TOPPS DCT ENE PARCH4
Aircraft B77W/H-SDE1E2E3FGHIJ2J3J4J5M1RWXY/LB1D1

Departure

Time 2026-04-30 21:08
Airport London Heathrow Airport (EGLL)

Arrival

Time N/A
Airport John F. Kennedy International Airport (KJFK)
Time Latitude Longitude Altitude Speed Heading
2026-04-30 20:20 51.47018 -0.46537 92 ft 0 kts 56°
2026-04-30 21:00 51.46994 -0.46593 95 ft 3 kts 56°
2026-04-30 21:00 51.46984 -0.46653 93 ft 4 kts 125°
2026-04-30 21:01 51.47019 -0.46694 93 ft 0 kts 146°
2026-04-30 21:01 51.47019 -0.46695 93 ft 0 kts 146°
2026-04-30 21:03 51.46989 -0.46662 94 ft 16 kts 146°
2026-04-30 21:03 51.46879 -0.46541 95 ft 20 kts 146°
2026-04-30 21:04 51.46800 -0.46454 95 ft 0 kts 146°
2026-04-30 21:04 51.46747 -0.46425 94 ft 14 kts 173°
2026-04-30 21:04 51.46658 -0.46633 95 ft 14 kts 269°
2026-04-30 21:05 51.46657 -0.46786 95 ft 14 kts 269°
2026-04-30 21:05 51.46656 -0.46941 95 ft 14 kts 270°
2026-04-30 21:05 51.46656 -0.47128 94 ft 21 kts 269°
2026-04-30 21:05 51.46655 -0.47369 94 ft 22 kts 270°
2026-04-30 21:06 51.46654 -0.47612 91 ft 22 kts 270°
2026-04-30 21:06 51.46653 -0.47854 91 ft 22 kts 270°
2026-04-30 21:06 51.46653 -0.48097 95 ft 22 kts 270°
2026-04-30 21:06 51.46652 -0.48337 94 ft 22 kts 270°
2026-04-30 21:07 51.46651 -0.48580 92 ft 22 kts 270°
2026-04-30 21:07 51.46615 -0.48751 94 ft 15 kts 215°
2026-04-30 21:07 51.46515 -0.48773 94 ft 15 kts 156°
2026-04-30 21:07 51.46479 -0.48623 95 ft 18 kts 89°
2026-04-30 21:08 51.46480 -0.48077 92 ft 86 kts 89°
2026-04-30 21:08 51.46484 -0.46758 97 ft 149 kts 90°
2026-04-30 21:08 51.46488 -0.44827 189 ft 187 kts 89°
2026-04-30 21:08 51.46482 -0.42808 1039 ft 174 kts 92°
2026-04-30 21:09 51.46295 -0.41008 1834 ft 163 kts 121°
2026-04-30 21:09 51.45442 -0.39780 2119 ft 179 kts 159°
2026-04-30 21:09 51.44115 -0.39730 2325 ft 211 kts 192°
2026-04-30 21:09 51.42792 -0.41077 2617 ft 240 kts 218°
2026-04-30 21:10 51.41597 -0.43033 3172 ft 251 kts 220°
2026-04-30 21:10 51.40367 -0.45053 3926 ft 255 kts 221°
2026-04-30 21:10 51.39105 -0.47079 4673 ft 259 kts 221°
2026-04-30 21:10 51.37795 -0.49090 5442 ft 262 kts 221°
2026-04-30 21:11 51.36457 -0.51100 6162 ft 266 kts 221°
2026-04-30 21:11 51.35095 -0.53128 6872 ft 270 kts 221°
2026-04-30 21:11 51.33723 -0.55207 7564 ft 271 kts 226°
2026-04-30 21:11 51.32773 -0.57857 8109 ft 283 kts 253°
2026-04-30 21:12 51.32672 -0.61012 8783 ft 291 kts 279°
2026-04-30 21:12 51.33250 -0.64134 9467 ft 296 kts 288°
2026-04-30 21:12 51.34011 -0.67225 10139 ft 301 kts 290°
2026-04-30 21:12 51.34820 -0.70352 10609 ft 312 kts 290°
2026-04-30 21:13 51.35688 -0.73686 10775 ft 336 kts 290°
2026-04-30 21:13 51.36617 -0.77256 10962 ft 360 kts 290°
2026-04-30 21:13 51.37608 -0.81069 11242 ft 379 kts 290°
2026-04-30 21:13 51.38649 -0.84951 11819 ft 390 kts 292°
2026-04-30 21:14 51.39808 -0.88989 12600 ft 397 kts 292°
2026-04-30 21:14 51.40965 -0.92962 13457 ft 402 kts 292°
2026-04-30 21:14 51.42150 -0.97058 14275 ft 408 kts 292°
2026-04-30 21:14 51.43340 -1.01217 15042 ft 413 kts 292°
2026-04-30 21:15 51.44536 -1.05432 15829 ft 418 kts 292°
2026-04-30 21:15 51.45742 -1.09700 16616 ft 423 kts 292°
2026-04-30 21:15 51.46957 -1.14014 17393 ft 427 kts 292°
2026-04-30 21:15 51.48260 -1.18339 18132 ft 434 kts 297°
2026-04-30 21:16 51.49923 -1.22434 18822 ft 442 kts 305°
2026-04-30 21:16 51.51904 -1.26245 19481 ft 448 kts 313°
2026-04-30 21:16 51.54176 -1.29691 20136 ft 452 kts 317°
2026-04-30 21:16 51.56525 -1.33098 20752 ft 457 kts 316°
2026-04-30 21:17 51.58835 -1.36643 21371 ft 462 kts 311°
2026-04-30 21:17 51.60899 -1.40624 21997 ft 465 kts 304°
2026-04-30 21:17 51.62696 -1.44954 22632 ft 467 kts 297°
2026-04-30 21:17 51.64221 -1.49581 23256 ft 469 kts 294°
2026-04-30 21:18 51.65713 -1.54288 23844 ft 474 kts 294°
2026-04-30 21:18 51.67241 -1.59009 24355 ft 478 kts 295°
2026-04-30 21:18 51.68744 -1.63798 24914 ft 478 kts 290°
2026-04-30 21:18 51.69913 -1.68804 25475 ft 477 kts 284°
2026-04-30 21:19 51.70762 -1.73962 26012 ft 476 kts 278°
2026-04-30 21:19 51.71264 -1.79229 26537 ft 476 kts 272°
2026-04-30 21:19 51.71596 -1.84552 27032 ft 478 kts 272°
2026-04-30 21:19 51.71938 -1.89890 27515 ft 481 kts 273°
2026-04-30 21:20 51.72309 -1.95284 27997 ft 484 kts 273°
2026-04-30 21:20 51.72694 -2.00680 28473 ft 486 kts 274°
2026-04-30 21:20 51.73082 -2.06111 28936 ft 488 kts 274°
2026-04-30 21:20 51.73465 -2.11560 29382 ft 490 kts 274°
2026-04-30 21:21 51.73846 -2.17036 29829 ft 491 kts 274°
2026-04-30 21:21 51.74225 -2.22503 30370 ft 489 kts 274°
2026-04-30 21:21 51.74973 -2.33346 31386 ft 484 kts 274°
2026-04-30 21:22 51.75341 -2.38739 31845 ft 483 kts 274°
2026-04-30 21:22 51.76418 -2.54761 33205 ft 478 kts 273°
2026-04-30 21:23 51.76753 -2.60077 33661 ft 476 kts 273°
2026-04-30 21:23 51.77083 -2.65393 34084 ft 475 kts 273°
2026-04-30 21:23 51.77762 -2.75980 34776 ft 474 kts 273°
2026-04-30 21:24 51.78102 -2.81270 35062 ft 474 kts 273°
2026-04-30 21:24 51.78439 -2.86554 35341 ft 473 kts 273°
2026-04-30 21:24 51.78773 -2.91838 35634 ft 473 kts 273°
2026-04-30 21:24 51.79105 -2.97124 35924 ft 472 kts 273°
2026-04-30 21:25 51.79758 -3.07707 36208 ft 476 kts 273°
2026-04-30 21:25 51.80083 -3.13030 36243 ft 476 kts 273°
2026-04-30 21:26 51.81038 -3.28866 36199 ft 469 kts 272°
2026-04-30 21:27 51.81963 -3.44590 36157 ft 468 kts 272°
2026-04-30 21:27 51.82626 -3.55059 36143 ft 470 kts 276°
2026-04-30 21:28 51.84620 -3.70638 36136 ft 473 kts 279°
2026-04-30 21:29 51.86685 -3.86284 36127 ft 475 kts 279°
2026-04-30 21:30 51.89786 -4.10747 36119 ft 477 kts 278°
2026-04-30 21:31 51.93058 -4.37063 36124 ft 476 kts 278°
2026-04-30 21:32 51.94983 -4.52791 36119 ft 476 kts 278°
2026-04-30 21:32 51.96261 -4.63326 36115 ft 476 kts 278°
2026-04-30 21:33 51.98153 -4.79093 36121 ft 475 kts 278°
2026-04-30 21:34 51.99403 -4.89613 36121 ft 474 kts 277°
2026-04-30 21:34 52.01258 -5.05375 36117 ft 474 kts 277°
2026-04-30 21:35 52.02483 -5.15885 36117 ft 474 kts 277°
2026-04-30 21:35 52.04176 -5.26254 36123 ft 477 kts 285°
2026-04-30 21:36 52.06307 -5.36482 36121 ft 478 kts 285°
2026-04-30 21:37 52.10498 -5.57032 36120 ft 479 kts 284°
2026-04-30 21:37 52.12560 -5.67368 36110 ft 480 kts 284°
2026-04-30 21:38 52.14615 -5.77702 36110 ft 481 kts 284°
2026-04-30 21:38 52.16498 -5.88131 36115 ft 478 kts 279°
2026-04-30 21:39 52.17891 -5.98727 36111 ft 478 kts 278°
2026-04-30 21:39 52.19233 -6.09345 36112 ft 479 kts 278°
2026-04-30 21:40 52.20592 -6.19982 36107 ft 479 kts 278°
2026-04-30 21:40 52.21961 -6.30619 36105 ft 480 kts 278°
2026-04-30 21:41 52.23318 -6.41211 36100 ft 480 kts 278°
2026-04-30 21:41 52.24674 -6.51868 36101 ft 480 kts 277°
2026-04-30 21:42 52.26021 -6.62543 36100 ft 480 kts 277°
2026-04-30 21:42 52.27358 -6.73230 36099 ft 480 kts 277°
2026-04-30 21:43 52.28685 -6.83919 36105 ft 481 kts 277°
2026-04-30 21:43 52.30002 -6.94616 36102 ft 481 kts 277°
2026-04-30 21:44 52.31312 -7.05342 36106 ft 481 kts 277°
2026-04-30 21:44 52.32612 -7.16067 36103 ft 482 kts 277°
2026-04-30 21:45 52.33905 -7.26818 36101 ft 482 kts 277°
2026-04-30 21:45 52.35188 -7.37581 36098 ft 483 kts 276°
2026-04-30 21:46 52.36465 -7.48379 36085 ft 483 kts 276°
2026-04-30 21:46 52.37732 -7.59180 36077 ft 484 kts 276°
2026-04-30 21:47 52.38992 -7.70016 36078 ft 485 kts 276°
2026-04-30 21:47 52.40245 -7.80884 36081 ft 486 kts 276°
2026-04-30 21:48 52.41489 -7.91762 36078 ft 487 kts 276°
2026-04-30 21:48 52.42719 -8.02611 36082 ft 488 kts 276°
2026-04-30 21:49 52.43948 -8.13547 36077 ft 488 kts 275°
2026-04-30 21:49 52.45169 -8.24507 36072 ft 489 kts 275°
2026-04-30 21:50 52.46380 -8.35471 36070 ft 490 kts 275°
2026-04-30 21:50 52.47582 -8.46458 36066 ft 490 kts 275°
2026-04-30 21:51 52.48775 -8.57459 36067 ft 491 kts 275°
2026-04-30 21:51 52.49963 -8.68524 36071 ft 491 kts 275°
2026-04-30 21:52 52.51140 -8.79575 36074 ft 492 kts 275°
2026-04-30 21:52 52.52307 -8.90644 36075 ft 492 kts 275°
2026-04-30 21:53 52.53467 -9.01741 36076 ft 493 kts 274°
2026-04-30 21:53 52.54618 -9.12862 36077 ft 494 kts 274°
2026-04-30 21:54 52.55759 -9.23991 36068 ft 495 kts 274°
2026-04-30 21:54 52.56893 -9.35159 36071 ft 496 kts 274°
2026-04-30 21:55 52.58017 -9.46348 36054 ft 496 kts 274°
2026-04-30 21:55 52.59133 -9.57557 36053 ft 497 kts 274°
2026-04-30 21:56 52.60239 -9.68785 36054 ft 498 kts 274°
2026-04-30 21:56 52.61337 -9.80045 36053 ft 499 kts 274°
2026-04-30 21:57 52.62419 -9.91257 36047 ft 500 kts 273°
2026-04-30 21:57 52.63499 -10.02558 36044 ft 500 kts 273°
2026-04-30 21:58 52.64577 -10.13952 36044 ft 501 kts 273°
2026-04-30 21:58 52.65629 -10.25207 36041 ft 501 kts 273°
2026-04-30 21:59 52.66679 -10.36553 36037 ft 501 kts 273°
2026-04-30 22:00 52.68235 -10.53595 36037 ft 501 kts 273°
2026-04-30 22:00 52.69767 -10.70654 36033 ft 502 kts 273°
2026-04-30 22:01 52.70774 -10.82031 36038 ft 502 kts 274°
2026-04-30 22:01 52.71771 -10.93425 36037 ft 502 kts 274°
2026-04-30 22:02 52.72758 -11.04822 36039 ft 502 kts 274°
2026-04-30 22:02 52.73733 -11.16219 36042 ft 502 kts 274°
2026-04-30 22:03 52.74698 -11.27636 36038 ft 502 kts 274°
2026-04-30 22:03 52.75652 -11.39048 36037 ft 502 kts 274°
2026-04-30 22:04 52.76594 -11.50458 36038 ft 501 kts 274°
2026-04-30 22:05 52.77985 -11.67562 36037 ft 501 kts 274°
2026-04-30 22:05 52.78891 -11.78883 36036 ft 500 kts 274°
2026-04-30 22:06 52.79793 -11.90292 36041 ft 500 kts 274°
2026-04-30 22:06 52.81124 -12.07382 36040 ft 500 kts 274°
2026-04-30 22:07 52.81998 -12.18788 36041 ft 500 kts 275°
2026-04-30 22:07 52.82860 -12.30185 36044 ft 500 kts 275°
2026-04-30 22:08 52.83712 -12.41605 36045 ft 500 kts 275°